Torna al catalogo

SL-14 DEB

AttivoPO
NORAD 19134·DEBRIS·🇷🇺 Russia

Lanciato Oct 26, 1978 da Plesetsk Cosmodrome

Loading…

Prossimi Passaggi (prossime 24 ore)

TLE

AggiornatoSource: Space-Track

Epoca: Sep 14, 2026, 15:07 UTC

1 19134U 78100G   26257.62992921  .00006861  00000-0  23119-1 0  9994
2 19134  82.2948  18.5898 0181655 197.6452 176.1834 12.93646684162190

Traccia SL-14 DEB in tempo reale con AllMySat

Download on the App Store